Warning: include(/datas/vol1/w4a123858/var/www/legheer.be/meteo3/wt_data_intl.php): failed to open stream: No such file or directory in /datas/vol1/w4a123858/var/www/legheer.be/meteo3/wuh.php on line 24

Warning: include(): Failed opening 'wt_data_intl.php' for inclusion (include_path='.:/opt/alt/php56/usr/share/pear') in /datas/vol1/w4a123858/var/www/legheer.be/meteo3/wuh.php on line 24
| Quelques graphiques

Language: 


Des rapports , des résumés tant et plus, au choix de chacun....


Données statistiques de la station
Quotidien Rapport Mars 20, 2017 Unités:  Métrique    Anglais   les deux
« Précédent Jour
Suivant Jour »
Quotidien Hebdomadaire Mensuel Annuel Actuel
  Haut: Bas: Moyen:
Température: 12.2 °C 9.8 °C 11 °C
Pt de rosée: 11.1 °C 7.7 °C 9.6 °C
Humidité: 98 % 74 % 91 %
Vitesse du vent: 33.1 km/h 7.9 km/h 18.9 km/h
Rafales: 38.9 km/h - -
Vent:- - WSW
Pression: 1010.0 hPa 1005.0 hPa -
Précipitation: 2.3 mm    
Historical Graphs
 
 
Données statistiques pour Mars 20, 2017
Heure Température Point de rosée Pression Vent Vitesse du vent Refales Humidité Pluie (taux horaire)
00:03 10.7 °C 9.6 °C 1010.0 hPa West 17.7 km/h 27.4 km/h 93 % 0.0 mm
00:08 10.6 °C 9.5 °C 1010.0 hPa WSW 16.9 km/h 27.0 km/h 93 % 0.0 mm
00:13 10.7 °C 9.6 °C 1010.0 hPa WSW 25.6 km/h 31.7 km/h 93 % 0.0 mm
00:18 10.7 °C 9.6 °C 1010.0 hPa WSW 17.7 km/h 31.7 km/h 93 % 0.0 mm
00:23 10.7 °C 9.6 °C 1010.0 hPa WSW 20.1 km/h 32.3 km/h 93 % 0.0 mm
00:28 10.7 °C 9.6 °C 1010.0 hPa WSW 20.1 km/h 32.3 km/h 93 % 0.0 mm
00:33 10.7 °C 9.6 °C 1010.0 hPa WSW 24.8 km/h 31.4 km/h 93 % 0.0 mm
00:38 10.7 °C 9.6 °C 1010.0 hPa WSW 27.0 km/h 31.4 km/h 93 % 0.0 mm
00:43 10.7 °C 9.6 °C 1010.0 hPa WSW 21.2 km/h 30.6 km/h 93 % 0.0 mm
00:48 10.7 °C 9.6 °C 1010.0 hPa West 25.9 km/h 32.0 km/h 93 % 0.0 mm
00:53 10.7 °C 9.6 °C 1010.0 hPa WSW 16.9 km/h 32.0 km/h 93 % 0.0 mm
00:58 10.7 °C 9.6 °C 1010.0 hPa WSW 24.8 km/h 27.0 km/h 93 % 0.0 mm
01:03 10.7 °C 9.6 °C 1010.0 hPa WSW 20.1 km/h 27.0 km/h 93 % 0.0 mm
01:08 10.7 °C 9.6 °C 1010.0 hPa WSW 23.8 km/h 25.3 km/h 93 % 0.0 mm
01:13 10.7 °C 9.6 °C 1010.0 hPa WSW 17.7 km/h 28.0 km/h 93 % 0.0 mm
01:18 10.7 °C 9.6 °C 1010.0 hPa WSW 27.0 km/h 28.0 km/h 93 % 0.0 mm
01:24 10.7 °C 9.8 °C 1010.0 hPa WSW 24.8 km/h 27.4 km/h 94 % 0.0 mm
01:29 10.7 °C 9.8 °C 1010.0 hPa WSW 21.6 km/h 27.0 km/h 94 % 0.0 mm
01:34 10.6 °C 9.7 °C 1010.0 hPa WSW 21.6 km/h 27.7 km/h 94 % 0.0 mm
01:39 10.6 °C 9.7 °C 1009.0 hPa West 24.8 km/h 27.7 km/h 94 % 0.0 mm
01:43 10.6 °C 9.7 °C 1009.0 hPa WSW 28.8 km/h 28.8 km/h 94 % 0.0 mm
01:49 10.6 °C 9.7 °C 1009.0 hPa WSW 16.6 km/h 28.8 km/h 94 % 0.0 mm
01:54 10.6 °C 9.7 °C 1009.0 hPa WSW 13.0 km/h 28.0 km/h 94 % 0.0 mm
01:59 10.6 °C 9.7 °C 1009.0 hPa WSW 24.5 km/h 28.0 km/h 94 % 0.0 mm
02:04 10.6 °C 9.7 °C 1009.0 hPa WSW 17.2 km/h 24.8 km/h 94 % 0.0 mm
02:09 10.5 °C 9.6 °C 1009.0 hPa WSW 17.7 km/h 28.5 km/h 94 % 0.0 mm
02:14 10.5 °C 9.6 °C 1009.0 hPa WSW 25.3 km/h 32.0 km/h 94 % 0.0 mm
02:19 10.6 °C 9.8 °C 1009.0 hPa WSW 20.9 km/h 32.0 km/h 95 % 0.0 mm
02:24 10.6 °C 9.8 °C 1009.0 hPa WSW 21.9 km/h 33.5 km/h 95 % 0.0 mm
02:29 10.5 °C 9.7 °C 1009.0 hPa WSW 20.9 km/h 33.5 km/h 95 % 0.0 mm
02:34 10.5 °C 9.7 °C 1009.0 hPa WSW 20.6 km/h 28.5 km/h 95 % 0.0 mm
02:39 10.5 °C 9.7 °C 1009.0 hPa WSW 32.8 km/h 32.8 km/h 95 % 0.0 mm
02:44 10.5 °C 9.7 °C 1009.0 hPa WSW 18.0 km/h 32.8 km/h 95 % 0.0 mm
02:49 10.5 °C 9.7 °C 1009.0 hPa WSW 19.8 km/h 28.0 km/h 95 % 0.0 mm
02:54 10.5 °C 9.7 °C 1009.0 hPa WSW 16.3 km/h 28.0 km/h 95 % 0.0 mm
02:59 10.4 °C 9.8 °C 1009.0 hPa WSW 13.7 km/h 25.9 km/h 96 % 0.0 mm
03:04 10.4 °C 9.8 °C 1009.0 hPa WSW 17.2 km/h 24.5 km/h 96 % 0.0 mm
03:09 10.4 °C 9.8 °C 1009.0 hPa WSW 15.4 km/h 23.8 km/h 96 % 0.0 mm
03:14 10.4 °C 9.8 °C 1009.0 hPa WSW 13.0 km/h 28.0 km/h 96 % 0.0 mm
03:19 10.5 °C 9.9 °C 1009.0 hPa WSW 16.3 km/h 28.0 km/h 96 % 0.0 mm
03:24 10.5 °C 9.9 °C 1008.0 hPa WSW 16.3 km/h 25.9 km/h 96 % 0.0 mm
03:29 10.5 °C 9.9 °C 1008.0 hPa WSW 16.9 km/h 25.9 km/h 96 % 0.0 mm
03:34 10.5 °C 9.9 °C 1008.0 hPa WSW 13.7 km/h 24.8 km/h 96 % 0.0 mm
03:39 10.5 °C 9.9 °C 1009.0 hPa WSW 16.6 km/h 24.8 km/h 96 % 0.0 mm
03:44 10.5 °C 9.9 °C 1009.0 hPa WSW 16.3 km/h 26.7 km/h 96 % 0.0 mm
03:49 10.5 °C 9.9 °C 1009.0 hPa WSW 15.1 km/h 26.7 km/h 96 % 0.0 mm
03:54 10.5 °C 9.9 °C 1009.0 hPa WSW 24.8 km/h 24.8 km/h 96 % 0.0 mm
03:59 10.6 °C 10.0 °C 1009.0 hPa WSW 24.5 km/h 30.6 km/h 96 % 0.0 mm
04:04 10.6 °C 10.0 °C 1009.0 hPa WSW 15.8 km/h 30.6 km/h 96 % 0.0 mm
04:09 10.6 °C 10.0 °C 1009.0 hPa WSW 23.0 km/h 28.5 km/h 96 % 0.0 mm
04:14 10.5 °C 9.9 °C 1009.0 hPa West 22.4 km/h 30.9 km/h 96 % 0.0 mm
04:19 10.4 °C 9.8 °C 1009.0 hPa West 23.0 km/h 30.9 km/h 96 % 0.0 mm
04:24 10.3 °C 9.8 °C 1009.0 hPa West 20.1 km/h 28.0 km/h 97 % 0.0 mm
04:29 10.3 °C 9.8 °C 1009.0 hPa WSW 19.8 km/h 28.0 km/h 97 % 0.0 mm
04:34 10.3 °C 9.8 °C 1009.0 hPa WSW 20.6 km/h 23.8 km/h 97 % 0.0 mm
04:39 10.3 °C 9.8 °C 1009.0 hPa WSW 20.6 km/h 24.8 km/h 97 % 0.0 mm
04:44 10.3 °C 10.0 °C 1009.0 hPa WSW 23.3 km/h 24.8 km/h 98 % 0.0 mm
04:49 10.2 °C 9.9 °C 1009.0 hPa WSW 16.6 km/h 28.0 km/h 98 % 0.0 mm
04:54 10.2 °C 9.9 °C 1010.0 hPa WSW 13.7 km/h 28.0 km/h 98 % 0.0 mm
04:59 10.2 °C 9.9 °C 1010.0 hPa WSW 23.8 km/h 23.8 km/h 98 % 0.0 mm
05:04 10.2 °C 9.9 °C 1010.0 hPa WSW 19.1 km/h 23.8 km/h 98 % 0.0 mm
05:09 10.2 °C 9.9 °C 1009.0 hPa West 14.8 km/h 30.2 km/h 98 % 0.0 mm
05:14 10.1 °C 9.8 °C 1009.0 hPa WSW 12.6 km/h 30.2 km/h 98 % 0.0 mm
05:19 10.1 °C 9.8 °C 1009.0 hPa WSW 17.2 km/h 27.7 km/h 98 % 0.0 mm
05:24 10.1 °C 9.8 °C 1009.0 hPa WSW 16.3 km/h 27.7 km/h 98 % 0.0 mm
05:29 10.1 °C 9.8 °C 1009.0 hPa WSW 18.0 km/h 27.7 km/h 98 % 0.0 mm
05:34 10.1 °C 9.8 °C 1009.0 hPa WSW 23.3 km/h 25.6 km/h 98 % 0.0 mm
05:39 10.1 °C 9.8 °C 1009.0 hPa SSW 17.7 km/h 25.6 km/h 98 % 0.0 mm
05:44 10.0 °C 9.7 °C 1009.0 hPa WSW 20.1 km/h 31.7 km/h 98 % 0.0 mm
05:50 10.0 °C 9.6 °C 1009.0 hPa SW 23.0 km/h 31.7 km/h 97 % 0.0 mm
05:55 9.9 °C 9.4 °C 1009.0 hPa WSW 15.8 km/h 30.2 km/h 97 % 0.0 mm
06:00 9.9 °C 9.4 °C 1009.0 hPa WSW 21.2 km/h 30.2 km/h 97 % 0.0 mm
06:05 9.8 °C 9.3 °C 1009.0 hPa WSW 14.0 km/h 26.2 km/h 97 % 0.0 mm
06:10 9.8 °C 9.5 °C 1009.0 hPa WSW 20.6 km/h 21.9 km/h 98 % 0.0 mm
06:15 9.8 °C 9.5 °C 1009.0 hPa WSW 16.3 km/h 20.9 km/h 98 % 0.0 mm
06:20 9.8 °C 9.5 °C 1009.0 hPa WSW 17.2 km/h 28.8 km/h 98 % 0.0 mm
06:25 9.8 °C 9.5 °C 1009.0 hPa WSW 21.2 km/h 28.8 km/h 98 % 0.0 mm
06:30 9.8 °C 9.5 °C 1009.0 hPa SW 14.0 km/h 24.5 km/h 98 % 0.0 mm
06:35 9.9 °C 9.4 °C 1009.0 hPa SSW 20.6 km/h 26.2 km/h 97 % 0.0 mm
06:40 9.9 °C 9.4 °C 1009.0 hPa SSW 16.9 km/h 26.7 km/h 97 % 0.0 mm
06:45 9.9 °C 9.4 °C 1009.0 hPa SSW 24.5 km/h 29.1 km/h 97 % 0.0 mm
06:50 9.9 °C 9.4 °C 1009.0 hPa WSW 17.7 km/h 29.1 km/h 97 % 0.0 mm
06:55 9.9 °C 9.4 °C 1009.0 hPa WSW 18.3 km/h 27.7 km/h 97 % 0.0 mm
07:00 9.9 °C 9.4 °C 1009.0 hPa SW 16.9 km/h 23.3 km/h 97 % 0.0 mm
07:05 9.9 °C 9.4 °C 1009.0 hPa WSW 17.7 km/h 28.0 km/h 97 % 0.0 mm
07:10 9.9 °C 9.4 °C 1009.0 hPa SW 12.2 km/h 28.0 km/h 97 % 0.0 mm
07:15 9.9 °C 9.4 °C 1009.0 hPa SW 16.3 km/h 23.3 km/h 97 % 0.0 mm
07:20 9.9 °C 9.4 °C 1009.0 hPa SSW 16.9 km/h 23.3 km/h 97 % 0.0 mm
07:25 9.9 °C 9.4 °C 1008.0 hPa WSW 11.9 km/h 21.6 km/h 97 % 0.0 mm
07:30 10.0 °C 9.6 °C 1008.0 hPa SW 15.8 km/h 21.6 km/h 97 % 0.0 mm
07:35 10.0 °C 9.6 °C 1008.0 hPa WSW 16.3 km/h 19.1 km/h 97 % 0.0 mm
07:40 10.0 °C 9.6 °C 1008.0 hPa WSW 10.5 km/h 17.2 km/h 97 % 0.0 mm
07:45 10.0 °C 9.6 °C 1008.0 hPa SSW 16.6 km/h 21.2 km/h 97 % 0.0 mm
07:50 10.0 °C 9.6 °C 1008.0 hPa SW 14.3 km/h 21.2 km/h 97 % 0.0 mm
07:55 10.1 °C 9.7 °C 1009.0 hPa SW 17.7 km/h 22.4 km/h 97 % 0.0 mm
08:00 10.1 °C 9.5 °C 1009.0 hPa WSW 20.1 km/h 28.0 km/h 96 % 0.0 mm
08:05 10.1 °C 9.5 °C 1009.0 hPa SW 13.0 km/h 28.0 km/h 96 % 0.0 mm
08:10 10.1 °C 9.5 °C 1008.0 hPa SW 19.8 km/h 20.1 km/h 96 % 0.0 mm
08:15 10.2 °C 9.4 °C 1008.0 hPa West 16.3 km/h 24.8 km/h 95 % 0.0 mm
08:20 10.4 °C 9.4 °C 1008.0 hPa SW 13.0 km/h 24.8 km/h 94 % 0.0 mm
08:23 10.5 °C 9.6 °C 1008.0 hPa WSW 19.8 km/h 24.8 km/h 94 % 0.0 mm
08:28 10.6 °C 9.5 °C 1008.0 hPa WSW 16.6 km/h 24.5 km/h 93 % 0.0 mm
08:33 10.7 °C 9.4 °C 1008.0 hPa SW 19.1 km/h 24.5 km/h 92 % 0.0 mm
08:38 10.8 °C 9.2 °C 1008.0 hPa SSW 21.2 km/h 21.9 km/h 90 % 0.0 mm
08:39 10.8 °C 9.1 °C 1008.0 hPa WSW 20.9 km/h 27.7 km/h 89 % 0.0 mm
08:44 11.0 °C 9.1 °C 1008.0 hPa WSW 23.8 km/h 27.7 km/h 88 % 0.0 mm
08:49 11.0 °C 8.9 °C 1008.0 hPa WSW 20.9 km/h 25.6 km/h 87 % 0.0 mm
08:54 11.1 °C 8.8 °C 1008.0 hPa SW 24.5 km/h 24.8 km/h 86 % 0.0 mm
08:59 11.0 °C 8.6 °C 1008.0 hPa SW 17.7 km/h 33.8 km/h 85 % 0.0 mm
09:04 10.9 °C 8.4 °C 1008.0 hPa WSW 22.7 km/h 33.8 km/h 85 % 0.0 mm
09:09 10.8 °C 8.3 °C 1008.0 hPa WSW 23.3 km/h 32.0 km/h 85 % 0.0 mm
09:14 10.8 °C 8.6 °C 1008.0 hPa SSW 23.3 km/h 32.0 km/h 86 % 0.0 mm
09:19 10.9 °C 8.6 °C 1008.0 hPa WSW 21.6 km/h 24.8 km/h 86 % 0.0 mm
09:24 10.9 °C 8.6 °C 1008.0 hPa SW 24.5 km/h 24.8 km/h 86 % 0.0 mm
09:29 11.0 °C 8.7 °C 1008.0 hPa WSW 20.1 km/h 24.5 km/h 86 % 0.0 mm
09:34 11.0 °C 8.6 °C 1008.0 hPa WSW 19.5 km/h 25.6 km/h 85 % 0.0 mm
09:39 11.0 °C 8.6 °C 1008.0 hPa WSW 20.6 km/h 31.4 km/h 85 % 0.0 mm
09:44 11.0 °C 8.4 °C 1008.0 hPa SW 27.4 km/h 31.4 km/h 84 % 0.0 mm
09:49 11.1 °C 8.7 °C 1008.0 hPa WSW 15.8 km/h 27.4 km/h 85 % 0.0 mm
09:54 11.2 °C 8.7 °C 1008.0 hPa WSW 19.8 km/h 27.4 km/h 85 % 0.0 mm
09:59 11.4 °C 8.9 °C 1008.0 hPa SSW 32.8 km/h 32.8 km/h 85 % 0.0 mm
10:04 11.4 °C 8.8 °C 1008.0 hPa SSW 20.9 km/h 32.8 km/h 84 % 0.0 mm
10:09 11.8 °C 9.2 °C 1007.0 hPa WSW 16.3 km/h 28.5 km/h 84 % 0.0 mm
10:14 11.7 °C 9.1 °C 1007.0 hPa SW 21.9 km/h 28.5 km/h 84 % 0.0 mm
10:19 11.6 °C 8.8 °C 1007.0 hPa WSW 17.7 km/h 28.5 km/h 83 % 0.0 mm
10:24 11.6 °C 8.9 °C 1008.0 hPa WSW 28.5 km/h 31.4 km/h 84 % 0.0 mm
10:29 11.4 °C 8.8 °C 1008.0 hPa WSW 20.1 km/h 31.4 km/h 84 % 0.0 mm
10:34 11.4 °C 8.8 °C 1008.0 hPa WSW 12.6 km/h 32.0 km/h 84 % 0.0 mm
10:39 11.4 °C 8.8 °C 1008.0 hPa WSW 21.2 km/h 32.0 km/h 84 % 0.0 mm
10:44 11.4 °C 8.9 °C 1008.0 hPa WSW 15.8 km/h 31.4 km/h 85 % 0.0 mm
10:49 11.6 °C 9.3 °C 1008.0 hPa SSW 12.2 km/h 27.7 km/h 86 % 0.0 mm
10:54 11.6 °C 9.3 °C 1008.0 hPa SW 21.6 km/h 28.5 km/h 86 % 0.0 mm
10:59 11.4 °C 9.1 °C 1008.0 hPa SW 24.5 km/h 36.0 km/h 85 % 0.0 mm
11:04 11.4 °C 9.1 °C 1008.0 hPa SW 21.2 km/h 36.0 km/h 85 % 0.0 mm
11:09 11.6 °C 9.1 °C 1007.0 hPa SW 23.0 km/h 31.4 km/h 85 % 0.0 mm
11:14 11.6 °C 9.3 °C 1007.0 hPa WSW 20.9 km/h 28.0 km/h 86 % 0.0 mm
11:19 11.6 °C 9.1 °C 1007.0 hPa WSW 25.9 km/h 37.0 km/h 85 % 0.0 mm
11:24 11.4 °C 9.2 °C 1008.0 hPa WSW 21.2 km/h 38.1 km/h 86 % 0.0 mm
11:30 11.4 °C 9.2 °C 1008.0 hPa WSW 15.8 km/h 38.1 km/h 86 % 0.0 mm
11:35 11.6 °C 9.5 °C 1008.0 hPa SSW 14.0 km/h 31.4 km/h 87 % 0.0 mm
11:40 11.4 °C 9.4 °C 1007.0 hPa WSW 21.2 km/h 32.0 km/h 87 % 0.0 mm
11:45 11.4 °C 9.4 °C 1007.0 hPa SW 14.0 km/h 32.0 km/h 87 % 0.0 mm
11:50 11.4 °C 9.4 °C 1007.0 hPa SSW 17.7 km/h 27.7 km/h 87 % 0.0 mm
11:55 11.4 °C 9.4 °C 1007.0 hPa WSW 27.0 km/h 27.7 km/h 87 % 0.0 mm
12:00 11.6 °C 9.7 °C 1007.0 hPa WSW 16.6 km/h 28.5 km/h 88 % 0.0 mm
12:05 11.7 °C 9.7 °C 1007.0 hPa WSW 17.2 km/h 34.3 km/h 88 % 0.0 mm
12:10 11.8 °C 9.8 °C 1007.0 hPa SSW 20.9 km/h 34.3 km/h 88 % 0.0 mm
12:15 11.8 °C 9.8 °C 1007.0 hPa SW 20.1 km/h 32.8 km/h 88 % 0.0 mm
12:20 11.8 °C 9.8 °C 1007.0 hPa SW 23.8 km/h 31.7 km/h 88 % 0.0 mm
12:25 11.8 °C 9.8 °C 1006.0 hPa SSW 15.1 km/h 31.7 km/h 88 % 0.0 mm
12:30 11.8 °C 9.8 °C 1006.0 hPa WSW 22.4 km/h 27.7 km/h 88 % 0.0 mm
12:35 11.8 °C 9.8 °C 1006.0 hPa WSW 16.6 km/h 30.2 km/h 88 % 0.0 mm
12:40 11.8 °C 9.8 °C 1006.0 hPa WSW 17.7 km/h 30.2 km/h 88 % 0.0 mm
12:41 11.8 °C 9.8 °C 1006.0 hPa SW 20.9 km/h 27.7 km/h 88 % 0.0 mm
12:46 11.8 °C 9.8 °C 1006.0 hPa SW 17.7 km/h 28.5 km/h 88 % 0.0 mm
12:51 11.8 °C 9.9 °C 1006.0 hPa WSW 27.4 km/h 28.5 km/h 88 % 0.0 mm
12:56 12.1 °C 10.1 °C 1006.0 hPa WSW 20.9 km/h 30.2 km/h 88 % 0.0 mm
13:01 12.1 °C 9.9 °C 1006.0 hPa SSW 27.4 km/h 36.0 km/h 87 % 0.0 mm
13:06 12.2 °C 10.2 °C 1006.0 hPa SW 20.6 km/h 36.0 km/h 87 % 0.0 mm
13:11 12.2 °C 10.2 °C 1006.0 hPa WSW 23.8 km/h 23.8 km/h 87 % 0.0 mm
13:16 12.1 °C 9.6 °C 1006.0 hPa WSW 24.8 km/h 35.6 km/h 85 % 0.0 mm
13:21 12.1 °C 9.6 °C 1006.0 hPa WSW 24.5 km/h 35.6 km/h 85 % 0.0 mm
13:26 12.1 °C 9.6 °C 1006.0 hPa WSW 31.7 km/h 35.6 km/h 85 % 0.0 mm
13:32 12.1 °C 9.8 °C 1006.0 hPa SW 23.8 km/h 35.2 km/h 86 % 0.0 mm
13:37 11.9 °C 9.5 °C 1006.0 hPa WSW 23.0 km/h 32.8 km/h 85 % 0.0 mm
13:42 11.8 °C 9.6 °C 1007.0 hPa SW 28.0 km/h 32.8 km/h 86 % 0.0 mm
13:43 11.8 °C 9.5 °C 1007.0 hPa SW 27.4 km/h 35.6 km/h 86 % 0.0 mm
13:48 11.7 °C 9.7 °C 1007.0 hPa SW 28.0 km/h 35.6 km/h 88 % 0.0 mm
13:53 11.6 °C 10.0 °C 1007.0 hPa SSW 21.2 km/h 32.3 km/h 90 % 0.0 mm
13:58 11.4 °C 10.1 °C 1007.0 hPa SSW 16.6 km/h 32.3 km/h 91 % 0.0 mm
14:03 11.4 °C 10.1 °C 1007.0 hPa WSW 19.8 km/h 27.0 km/h 91 % 0.0 mm
14:08 11.4 °C 10.2 °C 1007.0 hPa SSW 17.2 km/h 28.5 km/h 92 % 0.0 mm
14:13 11.4 °C 10.2 °C 1007.0 hPa SW 20.1 km/h 28.5 km/h 92 % 0.0 mm
14:18 11.4 °C 10.2 °C 1007.0 hPa SSW 16.6 km/h 32.3 km/h 92 % 0.0 mm
14:23 11.4 °C 10.1 °C 1007.0 hPa WSW 16.9 km/h 32.3 km/h 92 % 0.0 mm
14:28 11.4 °C 10.1 °C 1007.0 hPa WSW 16.3 km/h 25.9 km/h 92 % 0.0 mm
14:33 11.4 °C 10.3 °C 1007.0 hPa SSW 13.7 km/h 24.5 km/h 93 % 0.0 mm
14:38 11.4 °C 10.4 °C 1007.0 hPa WSW 22.4 km/h 28.5 km/h 93 % 0.0 mm
14:43 11.4 °C 10.2 °C 1007.0 hPa SSW 24.8 km/h 28.5 km/h 92 % 0.0 mm
14:48 11.6 °C 10.3 °C 1007.0 hPa WSW 24.8 km/h 31.7 km/h 92 % 0.0 mm
14:53 11.6 °C 10.3 °C 1007.0 hPa WSW 15.8 km/h 31.7 km/h 92 % 0.0 mm
14:58 11.6 °C 10.3 °C 1007.0 hPa WSW 16.9 km/h 31.7 km/h 92 % 0.0 mm
15:03 11.6 °C 10.3 °C 1007.0 hPa WSW 10.1 km/h 27.4 km/h 92 % 0.0 mm
15:08 11.4 °C 10.2 °C 1007.0 hPa WSW 16.6 km/h 24.5 km/h 92 % 0.0 mm
15:13 11.4 °C 10.2 °C 1007.0 hPa SSW 16.9 km/h 23.8 km/h 92 % 0.0 mm
15:18 11.4 °C 10.4 °C 1007.0 hPa WSW 20.9 km/h 27.7 km/h 93 % 0.0 mm
15:23 11.6 °C 10.4 °C 1007.0 hPa WSW 21.2 km/h 31.7 km/h 93 % 0.0 mm
15:28 11.7 °C 10.7 °C 1007.0 hPa SW 20.6 km/h 31.7 km/h 94 % 0.0 mm
15:33 11.7 °C 10.7 °C 1007.0 hPa WSW 21.2 km/h 28.0 km/h 94 % 0.0 mm
15:38 11.6 °C 10.6 °C 1006.0 hPa WSW 15.8 km/h 28.0 km/h 94 % 0.0 mm
15:43 11.4 °C 10.6 °C 1006.0 hPa WSW 16.6 km/h 33.1 km/h 94 % 0.0 mm
15:48 11.4 °C 10.6 °C 1006.0 hPa WSW 20.9 km/h 33.1 km/h 94 % 0.0 mm
15:53 11.4 °C 10.6 °C 1006.0 hPa SW 17.7 km/h 28.0 km/h 94 % 0.0 mm
15:58 11.4 °C 10.4 °C 1006.0 hPa WSW 17.7 km/h 24.5 km/h 93 % 0.0 mm
16:03 11.4 °C 10.4 °C 1006.0 hPa WSW 15.1 km/h 24.5 km/h 93 % 0.0 mm
16:08 11.4 °C 10.3 °C 1006.0 hPa WSW 17.2 km/h 24.5 km/h 93 % 0.0 mm
16:13 11.4 °C 10.4 °C 1006.0 hPa WSW 13.7 km/h 21.2 km/h 94 % 0.0 mm
16:18 11.4 °C 10.4 °C 1006.0 hPa WSW 16.6 km/h 24.8 km/h 94 % 0.0 mm
16:23 11.4 °C 10.4 °C 1006.0 hPa WSW 16.9 km/h 24.8 km/h 94 % 0.0 mm
16:28 11.4 °C 10.6 °C 1006.0 hPa WSW 16.3 km/h 20.6 km/h 95 % 0.0 mm
16:33 11.4 °C 10.7 °C 1006.0 hPa WSW 12.2 km/h 20.6 km/h 95 % 0.0 mm
16:38 11.7 °C 10.9 °C 1006.0 hPa WSW 16.6 km/h 20.6 km/h 95 % 0.0 mm
16:43 11.8 °C 11.1 °C 1006.0 hPa West 18.0 km/h 20.6 km/h 95 % 0.0 mm
16:48 11.9 °C 11.0 °C 1006.0 hPa SW 15.1 km/h 20.1 km/h 94 % 0.0 mm
16:53 12.1 °C 10.4 °C 1006.0 hPa WSW 18.3 km/h 23.3 km/h 90 % 0.0 mm
16:58 12.2 °C 10.1 °C 1006.0 hPa WSW 19.8 km/h 23.3 km/h 87 % 0.0 mm
17:03 12.2 °C 9.6 °C 1006.0 hPa WSW 14.0 km/h 22.4 km/h 84 % 0.0 mm
17:08 12.2 °C 9.1 °C 1006.0 hPa WSW 16.9 km/h 22.4 km/h 81 % 0.0 mm
17:13 12.2 °C 8.7 °C 1006.0 hPa WSW 23.3 km/h 26.2 km/h 79 % 0.0 mm
17:18 12.2 °C 8.3 °C 1006.0 hPa SW 27.0 km/h 30.2 km/h 77 % 0.0 mm
17:23 12.2 °C 7.9 °C 1006.0 hPa SSW 19.5 km/h 30.2 km/h 75 % 0.0 mm
17:28 12.2 °C 7.7 °C 1006.0 hPa SSW 24.5 km/h 38.5 km/h 74 % 0.0 mm
17:33 12.2 °C 7.8 °C 1006.0 hPa SW 21.2 km/h 38.5 km/h 75 % 0.0 mm
17:38 12.2 °C 7.9 °C 1006.0 hPa WSW 23.0 km/h 29.1 km/h 75 % 0.0 mm
17:43 12.2 °C 7.9 °C 1006.0 hPa SW 19.5 km/h 29.1 km/h 75 % 0.0 mm
17:48 12.2 °C 7.9 °C 1006.0 hPa SW 20.1 km/h 32.3 km/h 75 % 0.0 mm
17:53 12.2 °C 7.8 °C 1006.0 hPa SW 16.3 km/h 32.3 km/h 75 % 0.0 mm
17:58 12.2 °C 7.8 °C 1006.0 hPa WSW 20.6 km/h 24.8 km/h 75 % 0.0 mm
18:03 12.2 °C 7.8 °C 1006.0 hPa SW 21.2 km/h 25.9 km/h 75 % 0.0 mm
18:08 11.9 °C 7.8 °C 1005.0 hPa WSW 33.1 km/h 38.9 km/h 76 % 0.0 mm
18:13 11.8 °C 8.2 °C 1005.0 hPa WSW 18.0 km/h 38.9 km/h 79 % 0.0 mm
18:18 11.7 °C 8.3 °C 1005.0 hPa WSW 14.0 km/h 38.9 km/h 80 % 0.0 mm
18:23 11.6 °C 8.6 °C 1005.0 hPa WSW 20.9 km/h 25.6 km/h 82 % 0.0 mm
18:28 11.4 °C 8.5 °C 1005.0 hPa WSW 12.6 km/h 22.7 km/h 82 % 0.0 mm
18:34 11.4 °C 8.5 °C 1005.0 hPa SW 11.9 km/h 20.9 km/h 82 % 0.0 mm
18:39 11.4 °C 8.5 °C 1005.0 hPa WSW 17.7 km/h 17.7 km/h 82 % 0.0 mm
18:44 11.4 °C 8.5 °C 1005.0 hPa SSW 7.9 km/h 17.7 km/h 82 % 0.0 mm
18:49 11.4 °C 8.5 °C 1005.0 hPa SW 13.7 km/h 17.7 km/h 82 % 0.0 mm
18:54 11.4 °C 8.5 °C 1005.0 hPa SSW 10.5 km/h 19.8 km/h 82 % 0.0 mm
18:59 11.4 °C 8.5 °C 1005.0 hPa SW 13.7 km/h 20.1 km/h 82 % 0.0 mm
19:04 11.6 °C 8.6 °C 1005.0 hPa WSW 13.7 km/h 27.0 km/h 82 % 0.0 mm
19:09 11.6 °C 8.6 °C 1005.0 hPa WSW 15.4 km/h 27.7 km/h 82 % 0.0 mm
19:14 11.6 °C 8.6 °C 1005.0 hPa WSW 17.2 km/h 27.7 km/h 82 % 0.0 mm
19:19 11.6 °C 8.8 °C 1005.0 hPa WSW 16.9 km/h 24.8 km/h 83 % 0.0 mm
19:24 11.6 °C 8.8 °C 1005.0 hPa WSW 16.9 km/h 29.1 km/h 83 % 0.0 mm
19:29 11.6 °C 8.8 °C 1005.0 hPa WSW 23.3 km/h 33.8 km/h 83 % 0.0 mm
19:34 11.6 °C 8.8 °C 1005.0 hPa WSW 25.6 km/h 33.8 km/h 83 % 0.0 mm
19:39 11.6 °C 8.8 °C 1005.0 hPa WSW 21.2 km/h 33.1 km/h 83 % 0.0 mm
19:44 11.6 °C 8.8 °C 1005.0 hPa SSW 16.3 km/h 30.2 km/h 83 % 0.0 mm
19:49 11.4 °C 8.8 °C 1005.0 hPa SW 21.2 km/h 31.7 km/h 84 % 0.0 mm
19:54 11.4 °C 9.1 °C 1005.0 hPa WSW 20.1 km/h 31.7 km/h 85 % 0.0 mm
19:59 11.4 °C 8.9 °C 1005.0 hPa SW 18.0 km/h 35.2 km/h 85 % 0.0 mm
20:04 11.4 °C 9.1 °C 1005.0 hPa WSW 23.3 km/h 35.2 km/h 86 % 0.0 mm
20:09 11.4 °C 9.1 °C 1005.0 hPa WSW 18.0 km/h 28.0 km/h 86 % 0.0 mm
20:14 11.3 °C 9.2 °C 1005.0 hPa SW 19.8 km/h 32.0 km/h 87 % 0.0 mm
20:19 11.2 °C 9.3 °C 1005.0 hPa WSW 18.0 km/h 32.0 km/h 88 % 0.0 mm
20:24 11.1 °C 9.3 °C 1005.0 hPa SW 16.6 km/h 24.5 km/h 89 % 0.0 mm
20:29 11.0 °C 9.4 °C 1005.0 hPa WSW 20.9 km/h 28.0 km/h 90 % 0.0 mm
20:34 10.9 °C 9.4 °C 1005.0 hPa WSW 17.7 km/h 28.0 km/h 91 % 0.0 mm
20:39 10.8 °C 9.6 °C 1005.0 hPa WSW 9.3 km/h 27.0 km/h 92 % 0.0 mm
20:44 10.8 °C 9.7 °C 1005.0 hPa WSW 15.1 km/h 20.9 km/h 93 % 0.0 mm
20:49 10.7 °C 9.8 °C 1005.0 hPa SW 15.8 km/h 23.8 km/h 94 % 0.0 mm
20:54 10.7 °C 9.8 °C 1005.0 hPa SW 17.7 km/h 23.8 km/h 94 % 0.3 mm
20:59 10.6 °C 9.8 °C 1005.0 hPa SSW 13.7 km/h 20.9 km/h 95 % 0.5 mm
21:04 10.6 °C 9.8 °C 1005.0 hPa SW 11.9 km/h 17.7 km/h 95 % 0.8 mm
21:09 10.5 °C 9.7 °C 1005.0 hPa SW 11.9 km/h 16.3 km/h 95 % 0.8 mm
21:14 10.5 °C 9.9 °C 1005.0 hPa SW 10.5 km/h 20.6 km/h 96 % 0.8 mm
21:19 10.4 °C 9.8 °C 1005.0 hPa WSW 16.3 km/h 21.2 km/h 96 % 1.0 mm
21:24 10.4 °C 9.9 °C 1005.0 hPa SW 9.3 km/h 21.2 km/h 97 % 1.0 mm
21:29 10.3 °C 9.8 °C 1005.0 hPa WSW 12.6 km/h 20.1 km/h 97 % 1.0 mm
21:34 10.3 °C 9.8 °C 1005.0 hPa WSW 8.7 km/h 17.2 km/h 97 % 1.5 mm
21:39 10.3 °C 9.8 °C 1005.0 hPa SSW 12.6 km/h 15.8 km/h 97 % 1.5 mm
21:44 10.3 °C 10.0 °C 1005.0 hPa SSW 13.7 km/h 15.8 km/h 98 % 1.5 mm
21:49 10.3 °C 10.0 °C 1005.0 hPa WSW 10.5 km/h 17.7 km/h 98 % 1.5 mm
21:54 10.3 °C 10.0 °C 1005.0 hPa WSW 8.7 km/h 17.7 km/h 98 % 1.5 mm
21:59 10.3 °C 10.0 °C 1005.0 hPa WSW 13.0 km/h 14.0 km/h 98 % 1.3 mm
22:04 10.3 °C 10.0 °C 1005.0 hPa WSW 10.1 km/h 16.6 km/h 98 % 1.3 mm
22:09 10.3 °C 10.0 °C 1005.0 hPa SSW 10.1 km/h 16.6 km/h 98 % 1.3 mm
22:14 10.3 °C 10.0 °C 1005.0 hPa SW 14.0 km/h 14.0 km/h 98 % 1.3 mm
22:19 10.3 °C 10.0 °C 1005.0 hPa WSW 18.0 km/h 20.1 km/h 98 % 1.0 mm
22:24 10.4 °C 10.1 °C 1005.0 hPa WSW 20.6 km/h 23.3 km/h 98 % 1.3 mm
22:29 10.4 °C 10.1 °C 1005.0 hPa WSW 15.8 km/h 23.3 km/h 98 % 1.3 mm
22:34 10.5 °C 10.2 °C 1005.0 hPa SW 17.7 km/h 20.9 km/h 98 % 0.8 mm
22:39 10.5 °C 10.2 °C 1006.0 hPa WSW 24.8 km/h 27.7 km/h 98 % 0.8 mm
22:44 10.6 °C 10.3 °C 1006.0 hPa WSW 12.6 km/h 32.0 km/h 98 % 0.8 mm
22:49 10.6 °C 10.3 °C 1006.0 hPa WSW 13.7 km/h 32.0 km/h 98 % 0.8 mm
22:54 10.7 °C 10.4 °C 1006.0 hPa WSW 15.8 km/h 29.9 km/h 98 % 0.5 mm
22:59 10.7 °C 10.4 °C 1006.0 hPa West 17.2 km/h 30.2 km/h 98 % 0.5 mm
23:04 10.7 °C 10.4 °C 1006.0 hPa WSW 16.6 km/h 30.2 km/h 98 % 0.3 mm
23:09 10.7 °C 10.4 °C 1006.0 hPa WSW 23.3 km/h 28.5 km/h 98 % 0.3 mm
23:14 10.7 °C 10.4 °C 1006.0 hPa West 21.6 km/h 28.5 km/h 98 % 0.3 mm
23:19 10.7 °C 10.4 °C 1006.0 hPa WSW 23.3 km/h 29.9 km/h 98 % 0.3 mm
23:25 10.6 °C 10.3 °C 1006.0 hPa WSW 21.2 km/h 29.9 km/h 98 % 0.0 mm
23:30 10.6 °C 10.3 °C 1006.0 hPa WSW 19.8 km/h 24.8 km/h 98 % 0.0 mm
23:35 10.5 °C 10.2 °C 1006.0 hPa WSW 22.4 km/h 27.7 km/h 98 % 0.0 mm
23:40 10.5 °C 10.2 °C 1006.0 hPa WSW 12.6 km/h 27.7 km/h 98 % 0.0 mm
23:45 10.4 °C 10.1 °C 1006.0 hPa WSW 15.8 km/h 27.7 km/h 98 % 0.0 mm
23:50 10.3 °C 10.0 °C 1006.0 hPa WSW 28.0 km/h 28.0 km/h 98 % 0.0 mm
23:55 10.2 °C 9.9 °C 1006.0 hPa WSW 20.1 km/h 28.0 km/h 98 % 0.0 mm
Le Gheer Warneton
Courtoisie de Weather Underground - 2.25 mb

Mise a jour :
Généré par Cumulus ()